NN3A-3 Weather Reports


time (UTC)temp
C
wind
direction
speed
KPH
gust
KPH
rain 1hr
cm
rain 24hr
cm
rain mn
cm
humidity
%
barometer
mb
20260507185642 17 128 0.0 0.0 0.00 0.00 0.00 59 1007.6
20260507185141 17 128 0.0 0.0 0.00 0.00 0.00 61 1007.9
20260507184641 16 128 0.0 0.0 0.00 0.00 0.00 61 1007.6
20260507184141 17 128 0.0 0.0 0.00 0.00 0.00 60 1007.9
20260507182642 17 128 0.0 0.0 0.00 0.00 0.00 61 1007.6
20260507182141 17 128 0.0 0.0 0.00 0.00 0.00 60 1007.6
20260507181642 18 128 0.0 0.0 0.00 0.00 0.00 60 1007.6
20260507181141 18 128 0.0 0.0 0.00 0.00 0.00 61 1007.6
20260507180642 18 128 0.0 0.0 0.00 0.00 0.00 61 1007.6
20260507175642 17 128 0.0 0.0 0.00 0.00 0.00 62 1007.9
20260507174643 17 128 0.0 0.0 0.00 0.00 0.00 60 1008.3
20260507172643 17 128 0.0 0.0 0.00 0.00 0.00 61 1008.6
20260507172143 17 128 0.0 0.0 0.00 0.00 0.00 59 1008.6
20260507171643 18 128 0.0 0.0 0.00 0.00 0.00 63 1008.6
20260507171144 17 128 0.0 0.0 0.00 0.00 0.00 64 1008.6
20260507170144 16 128 0.0 0.0 0.00 0.00 0.00 63 1008.6
20260507165144 17 128 0.0 0.0 0.00 0.00 0.00 63 1008.6
20260507164645 17 128 0.0 0.0 0.00 0.00 0.00 62 1008.6
20260507164145 16 128 0.0 0.0 0.00 0.00 0.00 61 1008.6
20260507163144 16 128 0.0 0.0 0.00 0.00 0.00 61 1008.9
20260507161645 17 128 0.0 0.0 0.00 0.00 0.00 60 1008.9
20260507161145 18 128 0.0 0.0 0.00 0.00 0.00 61 1008.9
20260507155646 17 128 0.0 0.0 0.00 0.00 0.00 62 1008.9
20260507155146 17 128 0.0 0.0 0.00 0.00 0.00 61 1008.9
20260507154646 16 128 0.0 0.0 0.00 0.00 0.00 61 1009.3
20260507154146 15 128 0.0 0.0 0.00 0.00 0.00 62 1009.3
20260507153147 16 128 0.0 0.0 0.00 0.00 0.00 61 1009.3
20260507152147 17 128 0.0 0.0 0.00 0.00 0.00 59 1009.3
20260507151647 17 128 0.0 0.0 0.00 0.00 0.00 61 1009.3
20260507151147 17 128 0.0 0.0 0.00 0.00 0.00 61 1009.6
20260507150147 16 128 0.0 0.0 0.00 0.00 0.00 61 1009.6
20260507145648 16 128 0.0 0.0 0.00 0.00 0.00 61 1009.6
20260507145148 15 128 0.0 0.0 0.00 0.00 0.00 62 1009.6
20260507144648 16 128 0.0 0.0 0.00 0.00 0.00 63 1010.0
20260507144148 15 128 0.0 0.0 0.00 0.00 0.00 59 1010.0
20260507143148 15 128 0.0 0.0 0.00 0.00 0.00 60 1010.0
20260507142648 16 128 0.0 0.0 0.00 0.00 0.00 61 1010.0
20260507142149 16 128 0.0 0.0 0.00 0.00 0.00 62 1010.0
20260507141149 16 128 0.0 0.0 0.00 0.00 0.00 61 1010.3
20260507140149 15 128 0.0 0.0 0.00 0.00 0.00 62 1010.3
20260507135649 16 128 0.0 0.0 0.00 0.00 0.00 61 1010.6
20260507134650 15 128 0.0 0.0 0.00 0.00 0.00 63 1010.6
20260507133150 13 128 0.0 0.0 0.00 0.00 0.00 65 1011.0
20260507132650 14 128 0.0 0.0 0.00 0.00 0.00 66 1010.6
20260507132151 15 128 0.0 0.0 0.00 0.00 0.00 67 1010.6
20260507131151 15 128 0.0 0.0 0.00 0.00 0.00 67 1010.6
20260507130151 14 128 0.0 0.0 0.00 0.00 0.00 70 1011.0
20260507125651 13 128 0.0 0.0 0.00 0.00 0.00 70 1011.0
20260507125151 13 128 0.0 0.0 0.00 0.00 0.00 71 1011.0
20260507124651 13 128 0.0 0.0 0.00 0.00 0.00 70 1010.6
20260507123153 13 128 0.0 0.0 0.00 0.00 0.00 74 1010.6
20260507122152 12 128 0.0 0.0 0.00 0.00 0.00 76 1010.6
20260507121652 12 128 0.0 0.0 0.00 0.00 0.00 77 1010.6
20260507121152 11 128 0.0 0.0 0.00 0.00 0.00 79 1010.6
20260507120153 11 128 0.0 0.0 0.00 0.00 0.00 82 1010.6
20260507115653 10 128 0.0 0.0 0.00 0.00 0.00 82 1010.6
20260507115153 8 128 0.0 0.0 0.00 0.00 0.00 82 1011.0
20260507114153 10 128 0.0 0.0 0.00 0.00 0.00 82 1010.6
20260507113653 10 128 0.0 0.0 0.00 0.00 0.00 82 1010.6
20260507113154 11 128 0.0 0.0 0.00 0.00 0.00 84 1010.3
20260507112154 10 128 0.0 0.0 0.00 0.00 0.00 88 1010.3
20260507111654 8 128 0.0 0.0 0.00 0.00 0.00 89 1010.3
20260507111154 7 128 0.0 0.0 0.00 0.00 0.00 91 1010.3
20260507110155 7 128 0.0 0.0 0.00 0.00 0.00 92 1010.3
20260507105155 6 128 0.0 0.0 0.00 0.00 0.00 93 1010.0
20260507104655 5 128 0.0 0.0 0.00 0.00 0.00 93 1010.0
20260507104155 6 128 0.0 0.0 0.00 0.00 0.00 93 1010.0
20260507103155 5 128 0.0 0.0 0.00 0.00 0.00 92 1010.0
20260507102656 5 128 0.0 0.0 0.00 0.00 0.00 92 1010.0
20260507102156 6 128 0.0 0.0 0.00 0.00 0.00 92 1009.6
20260507101157 6 128 0.0 0.0 0.00 0.00 0.00 92 1010.0
20260507100156 5 128 0.0 0.0 0.00 0.00 0.00 91 1009.6
20260507095656 7 128 0.0 0.0 0.00 0.00 0.00 91 1010.0
20260507095157 5 128 0.0 0.0 0.00 0.00 0.00 92 1010.0
20260507094657 7 128 0.0 0.0 0.00 0.00 0.00 92 1010.0
20260507094157 6 128 0.0 0.0 0.00 0.00 0.00 92 1010.0
20260507093157 6 128 0.0 0.0 0.00 0.00 0.00 92 1009.6
20260507092657 7 128 0.0 0.0 0.00 0.00 0.00 91 1010.0
20260507092157 7 128 0.0 0.0 0.00 0.00 0.00 91 1010.0
20260507091658 7 128 0.0 0.0 0.00 0.00 0.00 91 1010.0
20260507090158 8 128 0.0 0.0 0.00 0.00 0.00 91 1009.6
20260507084700 8 128 0.0 0.0 0.00 0.00 0.00 90 1009.6
20260507084158 7 128 0.0 0.0 0.00 0.00 0.00 90 1009.6
20260507083159 7 128 0.0 0.0 0.00 0.00 0.00 91 1009.6
20260507082658 8 128 0.0 0.0 0.00 0.00 0.00 91 1009.6
20260507082158 7 128 0.0 0.0 0.00 0.00 0.00 90 1010.0
20260507081658 8 128 0.0 0.0 0.00 0.00 0.00 90 1010.0
20260507081159 8 128 0.0 0.0 0.00 0.00 0.00 90 1010.0
20260507080700 7 128 0.0 0.0 0.00 0.00 0.00 90 1010.0
20260507080159 8 128 0.0 0.0 0.00 0.00 0.00 90 1010.0
20260507075700 8 128 0.0 0.0 0.00 0.00 0.00 91 1010.0
20260507075159 8 128 0.0 0.0 0.00 0.00 0.00 91 1010.0
20260507074659 7 128 0.0 0.0 0.00 0.00 0.00 91 1010.0
20260507074200 8 128 0.0 0.0 0.00 0.00 0.00 91 1010.0
20260507073200 8 128 0.0 0.0 0.00 0.00 0.00 91 1010.0
20260507072200 8 128 0.0 0.0 0.00 0.00 0.00 91 1010.0
20260507071200 8 128 0.0 0.0 0.00 0.00 0.00 90 1010.0
20260507065701 8 128 0.0 0.0 0.00 0.00 0.00 90 1010.0
20260507065201 8 128 0.0 0.0 0.00 0.00 0.00 90 1009.6
20260507064701 8 128 0.0 0.0 0.00 0.00 0.00 90 1010.0
20260507064201 8 128 0.0 0.0 0.00 0.00 0.00 90 1009.6
20260507063202 8 128 0.0 0.0 0.00 0.00 0.00 91 1009.6
20260507062203 9 128 0.0 0.0 0.00 0.00 0.00 91 1010.0
20260507061702 9 128 0.0 0.0 0.00 0.00 0.00 91 1010.0
20260507061202 8 128 0.0 0.0 0.00 0.00 0.00 92 1010.0
20260507060202 9 128 0.0 0.0 0.00 0.00 0.00 92 1010.0
20260507055203 9 128 0.0 0.0 0.00 0.00 0.00 92 1010.3
20260507054204 9 128 0.0 0.0 0.00 0.00 0.00 92 1010.3
20260507053204 9 128 0.0 0.0 0.00 0.00 0.00 92 1010.3
20260507052704 9 128 0.0 0.0 0.00 0.00 0.00 92 1010.3
20260507052205 9 128 0.0 0.0 0.00 0.00 0.00 92 1010.3
20260507051204 9 128 0.0 0.0 0.00 0.00 0.00 93 1010.3
20260507050204 9 128 0.0 0.0 0.00 0.00 0.00 92 1010.3
20260507045704 10 128 0.0 0.0 0.00 0.00 0.00 92 1010.3
20260507045204 10 128 0.0 0.0 0.00 0.00 0.00 93 1010.3
20260507044705 10 128 0.0 0.0 0.00 0.00 0.00 93 1010.3
20260507044205 9 128 0.0 0.0 0.00 0.00 0.00 93 1010.3
20260507043706 10 128 0.0 0.0 0.00 0.00 0.00 93 1010.3
20260507043205 10 128 0.0 0.0 0.00 0.00 0.00 93 1010.3
20260507042705 10 128 0.0 0.0 0.00 0.00 0.00 93 1010.3
20260507042205 10 128 0.0 0.0 0.00 0.00 0.00 94 1010.3
20260507041706 9 128 0.0 0.0 0.00 0.00 0.00 94 1010.3
20260507041207 9 128 0.0 0.0 0.00 0.00 0.00 94 1010.3
20260507040206 9 128 0.0 0.0 0.00 0.00 0.00 94 1010.6
20260507035706 10 128 0.0 0.0 0.00 0.00 0.00 94 1010.3
20260507035206 10 128 0.0 0.0 0.00 0.00 0.00 93 1010.3
20260507034706 10 128 0.0 0.0 0.00 0.00 0.00 93 1010.3
20260507034207 10 128 0.0 0.0 0.00 0.00 0.00 93 1010.6
20260507033207 10 128 0.0 0.0 0.00 0.00 0.00 94 1010.6
20260507032708 10 128 0.0 0.0 0.00 0.00 0.00 95 1010.3
20260507032207 10 128 0.0 0.0 0.00 0.00 0.00 95 1010.3
20260507031207 10 128 0.0 0.0 0.00 0.00 0.00 95 1010.3
20260507030208 10 128 0.0 0.0 0.00 0.00 0.00 95 1010.3
20260507025708 11 128 0.0 0.0 0.00 0.00 0.00 95 1010.3
20260507025208 11 128 0.0 0.0 0.00 0.00 0.00 95 1010.0
20260507024708 10 128 0.0 0.0 0.00 0.00 0.00 95 1010.0
20260507024208 11 128 0.0 0.0 0.00 0.00 0.36 95 1010.3
20260507022709 10 128 0.0 0.0 0.00 0.00 0.36 95 1010.3
20260507022210 10 128 0.0 0.0 0.00 0.00 0.36 94 1010.3
20260507020709 11 128 0.0 0.0 0.00 0.00 0.36 95 1010.0
20260507020210 10 128 0.0 0.0 0.00 0.00 0.36 95 1009.6
20260507015710 11 128 0.0 0.0 0.00 0.00 0.36 95 1009.3
20260507015210 10 128 0.0 0.0 0.00 0.00 0.36 95 1009.6
20260507014711 10 128 0.0 0.0 0.00 0.00 0.36 94 1009.3
20260507014210 10 128 0.0 0.0 0.00 0.00 0.36 95 1009.6
20260507013210 11 128 0.0 0.0 0.00 0.00 0.36 95 1009.6
20260507012711 10 128 0.0 0.0 0.00 0.00 0.36 94 1009.3
20260507011712 10 128 0.0 0.0 0.00 0.00 0.36 94 1009.3
20260507011211 10 128 0.0 0.0 0.00 0.00 0.36 94 1009.3
20260507010213 10 128 0.0 0.0 0.00 0.00 0.36 94 1009.6
20260507005712 10 128 0.0 0.0 0.00 0.00 0.36 94 1009.6
20260507005214 10 128 0.0 0.0 0.00 0.00 0.36 94 1009.6
20260507004713 10 128 0.0 0.0 0.00 0.00 0.36 94 1009.6
20260507003212 11 128 0.0 0.0 0.00 0.00 0.36 94 1010.0
20260507002712 10 128 0.0 0.0 0.00 0.00 0.36 94 1010.0
20260507002212 11 128 0.0 0.0 0.00 0.00 0.36 94 1010.0
20260507001713 11 128 0.0 0.0 0.00 0.00 0.36 94 1010.3
20260507001213 10 128 0.0 0.0 0.00 0.00 0.36 94 1010.0
20260507000213 10 128 0.0 0.0 0.00 0.00 0.36 94 1009.6
20260506235715 11 128 0.0 0.0 0.00 0.00 0.36 94 1009.6
20260506235213 11 128 0.0 0.0 0.00 0.00 0.36 94 1009.3
20260506234214 10 128 0.0 0.0 0.00 0.00 0.36 94 1009.6
20260506233215 10 128 0.0 0.0 0.00 0.00 0.36 95 1009.6
20260506232715 11 128 0.0 0.0 0.00 0.00 0.36 95 1009.3
20260506232215 10 128 0.0 0.0 0.00 0.00 0.36 95 1009.3
20260506231715 10 128 0.0 0.0 0.00 0.00 0.36 95 1009.3
20260506231215 11 128 0.0 0.0 0.00 0.00 0.36 95 1008.9
20260506230215 11 128 0.0 0.0 0.00 0.00 0.36 96 1008.6
20260506225215 11 128 0.0 0.0 0.00 0.00 0.36 95 1008.6
20260506224715 11 128 0.0 0.0 0.00 0.00 0.36 95 1008.6
20260506223216 11 128 0.0 0.0 0.00 0.00 0.36 96 1008.6
20260506222216 11 128 0.0 0.0 0.00 0.00 0.36 96 1008.6
20260506221717 12 128 0.0 0.0 0.00 0.00 0.36 96 1008.6
20260506221216 12 128 0.0 0.0 0.00 0.00 0.36 96 1008.6
20260506220217 12 128 0.0 0.0 0.00 0.00 0.36 96 1008.6
20260506215717 11 128 0.0 0.0 0.00 0.00 0.36 96 1008.3
20260506215217 12 128 0.0 0.0 0.00 0.00 0.36 96 1008.3
20260506214217 12 128 0.0 0.0 0.00 0.00 0.36 96 1008.3
20260506213217 12 128 0.0 0.0 0.00 0.00 0.36 96 1008.3
20260506212218 12 128 0.0 0.0 0.00 0.00 0.36 96 1007.9
20260506211719 12 128 0.0 0.0 0.00 0.00 0.36 96 1007.9
20260506211219 12 128 0.0 0.0 0.00 0.00 0.36 96 1007.6
20260506210219 11 128 0.0 0.0 0.00 0.00 0.36 96 1007.6
20260506205719 11 128 0.0 0.0 0.00 0.00 0.36 96 1007.6
20260506205219 12 128 0.0 0.0 0.00 0.00 0.36 96 1007.6
20260506204220 12 128 0.0 0.0 0.00 0.00 0.36 96 1007.6
20260506203220 12 128 0.0 0.0 0.00 0.00 0.36 96 1007.6
20260506202721 12 128 0.0 0.0 0.00 0.00 0.36 96 1007.2
20260506202220 12 128 0.0 0.0 0.00 0.00 0.36 96 1007.2
20260506201722 12 128 0.0 0.0 0.00 0.00 0.36 96 1007.2
20260506201221 12 128 0.0 0.0 0.00 0.00 0.36 97 1007.2
20260506200220 12 128 0.0 0.0 0.00 0.00 0.36 97 1007.2
20260506195721 11 128 0.0 0.0 0.00 0.00 0.36 97 1007.2
20260506195221 13 128 0.0 0.0 0.00 0.00 0.36 97 1007.2
20260506194722 12 128 0.0 0.0 0.00 0.00 0.36 97 1007.6
20260506194222 11 128 0.0 0.0 0.00 0.00 0.36 97 1007.2
20260506193222 12 128 0.0 0.0 0.00 0.00 0.36 97 1007.2
20260506192722 12 128 0.0 0.0 0.00 0.00 0.36 96 1007.2
20260506191722 12 128 0.0 0.0 0.00 0.00 0.36 96 1007.2
20260506191222 12 128 0.0 0.0 0.00 0.00 0.36 96 1007.2
20260506190222 13 128 0.0 0.0 0.00 0.00 0.36 96 1006.9
20260506185723 13 128 0.0 0.0 0.00 0.00 0.36 96 1006.9